Regional Weather Roundup
Issued by NWS

Home | Current Version | Previous Version | Text Only | Print | Product List | Glossary Off
Versions: 1 2 3 4 5 6 7 8 9 10 11 12 13 14 15 16 17 18 19 20 21 22 23 24 25 26 27 28 29 30 31 32 33 34 35 36 37 38 39 40 41 42 43 44 45 46 47 48 49 50

000
ASUS43 KLOT 280409
RWRIL

ILLINOIS REGIONAL WEATHER ROUNDUP
NATIONAL WEATHER SERVICE CHICAGO/ROMEOVILLE IL
1100 PM CDT FRI MAY 27 2016

NOTE: "FAIR" INDICATES FEW OR NO CLOUDS BELOW 12,000 FEET WITH NO
SIGNIFICANT WEATHER AND/OR OBSTRUCTIONS TO VISIBILITY.

* THESE STATIONS ARE NOT UNDER NWS QUALITY CONTROL. THEY ALSO MAY NOT
  REPORT WEATHER SUCH AS PRECIPITATION OR FOG.

ILZ001-002-007-009-015-016-024-280500-
NORTHWEST ILLINOIS

CITY           SKY/WX    TMP DP  RH WIND       PRES   REMARKS
MOLINE         CLOUDY    74  67  78 SE10      29.76F
STERLING*      CLOUDY    73  68  84 SE9       29.81R
SAVANNA*       MOCLDY    72  67  84 S8        29.78S
$$

ILZ003-004-008-010-011-017-018-280500-
NORTH CENTRAL ILLINOIS

CITY           SKY/WX    TMP DP  RH WIND       PRES   REMARKS
ROCKFORD       CLOUDY    73  66  78 S18       29.84R
FREEPORT*      CLOUDY    71  66  85 S14       29.82S
ROCHELLE*      CLOUDY    69  65  87 S16       29.84S
DE KALB*       CLOUDY    69  65  89 S15       29.87R
$$

ILZ005-006-012>014-019>023-280500-
NORTHEAST ILLINOIS

CITY           SKY/WX    TMP DP  RH WIND       PRES   REMARKS
CHICAGO-OHARE  LGT RAIN  69  65  86 S15G22    29.88R
CHICAGO-MIDWAY LGT RAIN  71  67  87 S14G23    29.88S FOG
AURORA         MOCLDY    70  66  87 S14G23    29.86S
LANSING*       PTCLDY    70  65  84 S13G21    29.91R
JOLIET*        CLOUDY    70  67  90 S8        29.88S
WAUKEGAN       CLOUDY    70  66  87 S10       29.86S
DUPAGE AIRPORT CLOUDY    69  64  84 S13       29.87R
KANKAKEE*      CLOUDY    69  65  88 S12       29.91S
WHEELING       CLOUDY    70  65  84 S10       29.88R
MORRIS*        CLOUDY    69  66  89 S10       29.85F
ROMEOVILLE*    LGT RAIN  68  64  86 S17       29.88S
NORTHERLY ISL    N/A     69  66  90 S8          N/A
NORTHERLY ISL    N/A     69  66  90 S8          N/A
$$

LMZ740>746-280500-
SOUTHERN LAKE MICHIGAN

STATION/POSITION SKY/WX   TEMP    WIND        PRES    VSBY  WAVE
                          AIR SEA DIR/SP/G                  HT/PER
                          (F)     (DEG/KT/KT) (MB)    (MI)  (FT/S)
SOUTHERN BUOY              57 50  160/ 12/ 12 1011.9R         1/ 3
WILMETTE HARBOR            62 54  190/ 10/ 12   N/A           3/ 3
HARRISON CRIB              71     190/ 16/ 17   N/A
BURNHAM HARBOR             69     210/  7/ 10   N/A
CALUMET HARBOR                    180/  7/ 11 1011.6R
BURNS HARBOR               71     180/ 14/ 22 1012.9R
MICHIGAN CITY              71     170/ 14/ 16   N/A
MICHIGAN CITY 6N           68 59  200/ 16/ 23   N/A           1
ST. JOSEPH                 64 62  190/  4/  4   N/A           1/ 3
$$

ILZ025>027-034>036-040-047-049-050-058-095>099-280500-
WEST-CENTRAL ILLINOIS

CITY           SKY/WX    TMP DP  RH WIND       PRES   REMARKS
QUINCY         CLOUDY    70  68  93 S13       29.78S
GALESBURG*     LGT RAIN  69  66  89 S14G23    29.79S
MACOMB*        CLOUDY    69  67  93 S14G20    29.81R
JACKSONVILLE*  LGT RAIN  71  67  89 S15G21    29.83R
PITTSFIELD*    HVY RAIN  70  66  88 S13       29.82S
$$

ILZ028>032-037-038-041>044-048-051>054-059>061-280500-
CENTRAL ILLINOIS

CITY           SKY/WX    TMP DP  RH WIND       PRES   REMARKS
PONTIAC        CLOUDY    71  67  89 S16G23    29.88R
BLOOMINGTON    CLOUDY    69  68  97 S16       29.89R
DECATUR        CLOUDY    70  65  84 S9        29.88S
PEORIA         CLOUDY    70  67  90 S12       29.83S
LACON*         DRIZZLE   69  66  92 S13       29.83S
LINCOLN*       MOCLDY    70  67  90 S9        29.86S
SPRINGFIELD    MOCLDY    71  67  87 S10       29.85R
TAYLORVILLE    CLOUDY    69  66  91 S9        29.86S
$$

ILZ033-039-045-046-055>057-062-063-280500-
EAST-CENTRAL ILLINOIS

CITY           SKY/WX    TMP DP  RH WIND       PRES   REMARKS
CHAMPAIGN      CLOUDY    69  65  86 S10       29.90S
RANTOUL*       CLOUDY    69  67  92 S7        29.91S
MATTOON        CLOUDY    68  65  90 SE7       29.90S
PARIS*         CLOUDY    68  67  96 E3        29.92F
$$

ILZ079-100>102-280500-
SOUTHWEST ILLINOIS

CITY           SKY/WX    TMP DP  RH WIND       PRES   REMARKS
ALTON          CLOUDY    69  66  90 SE8       29.85S
BELLEVILLE     CLOUDY    70  70 100 E6        29.84R
CAHOKIA*       CLOUDY    71  67  87 SE9       29.83S
SPARTA*        CLOUDY    69  67  94 SE8       29.87R
$$

ILZ064>066-069>071-074>076-080>082-084>086-088>090-092>094-280500-
SOUTH-CENTRAL ILLINOIS

CITY           SKY/WX    TMP DP  RH WIND       PRES   REMARKS
CARBONDALE     CLOUDY    69  66  90 S6        29.88R
CAIRO*         CLOUDY    73  67  81 S6        29.89R
EFFINGHAM*     PTCLDY    68  68 100 E5        29.91F
MARION         CLOUDY    72  68  88 SE7       29.89R
MT. VERNON     CLOUDY    70  63  78 SE5       29.89F
CENTRALIA*     CLOUDY    70  68  95 SE7       29.87S
SALEM*         CLOUDY    69  67  92 SE5       29.88F
METROPOLIS*    CLOUDY    75  68  79 CALM      29.91R
$$

ILZ067-068-072-073-078-083-087-091-280500-
SOUTHEAST ILLINOIS

CITY           SKY/WX    TMP DP  RH WIND       PRES   REMARKS
LAWRENCEVILLE  CLOUDY    75  64  68 SE7       29.92F
FLORA*         MOCLDY    70  68  95 E6        29.90F
FAIRFIELD*     CLOUDY    70  66  87 CALM      29.89S
HARRISBURG*    CLOUDY    71  66  85 SE8       29.90S
ROBINSON*      CLOUDY    70  64  83 SE6       29.93S
CARMI*         CLOUDY    72  66  81 SE7       29.90F
$$

ABBREVIATIONS USED IN REMARKS
   TC - TEMPERATURE IN CELSIUS
  WCI - WIND CHILL INDEX
   HX - HEAT INDEX
  VSB - VISIBILITY
$$




USA.gov is the U.S. government's official web portal to all federal, state and local government web resources and services.